Other Surface Observations
Issued by NWS Tucson, AZ

Home | Current Version | Previous Version | Text Only | Print | Product List | Glossary On
Versions: 1 2 3 4 5 6 7 8 9 10 11 12 13 14 15 16 17 18 19 20 21 22 23 24 25 26 27 28 29 30 31 32 33 34 35 36 37 38 39 40 41 42 43 44 45 46 47 48 49 50
977
SXUS55 KTWC 192115
OSOTWC

WEATHER ROUNDUP FOR SOUTHEAST ARIZONA
NATIONAL WEATHER SERVICE TUCSON AZ
215 PM MST THU APR 19 2018

AZZ504>506-514-192215-
LOCATION       SKY/WX    TMP DP  RH WIND       PRES   REMARKS
TUCSON         FAIR      89   8   5 S21G37    29.86F
DAVIS-MONTHAN  FAIR      89   9   5 SW18G29   29.84F
CHILDRENS PARK N/A      N/A N/A   5 SW11              PIMA CO DEQ
ALVERNON/22ND  N/A       88 N/A N/A SW11              PIMA CO DEQ
CHERRY/GLENN   N/A      N/A N/A N/A N/A               PIMA CO DEQ
TANGERINE      N/A       88 N/A N/A SW14              PIMA CO DEQ
CONTL RANCH    N/A       91  11   5 SW11              PIMA CO DEQ
GRANT/1ST      N/A       88  13   6 SE14              PIMA CO DEQ
CRAYCROFT/22ND N/A       88   9   5 SW14              PIMA CO DEQ
GOLFLINKS/KOLB N/A      N/A N/A N/A N/A               PIMA CO DEQ
AJO/12TH       N/A       88  13   6 S15               PIMA CO DEQ
FAIRGROUNDS    N/A       86 N/A N/A SW19              PIMA CO DEQ
SAGUARO        N/A       90   0   3 SW11G23           *SABINO CYN
SAN CARLOS     N/A       88   9   5 S10G19            *SAN CARLOS
GREEN VALLEY   N/A       86  11   6 SW17              PIMA CO DEQ
HORSE CAMP CYN N/A       84   6   5 S17G30            *ARAVAIPA CYN
RINCON MTNS    N/A       69   3   7 SW6G15            *NR MANNING CAMP
$$

AZZ509>511-192215-
LOCATION       SKY/WX    TMP DP  RH WIND       PRES   REMARKS
SAFFORD        FAIR      87   0   3 S16G23    29.84F
STRAY HORSE    N/A       64   4   9 S6G16             *
TRAIL CABIN    N/A       72  10   9 S10G23            *N OF GRANVILLE
BLACK HILLS    NOT AVBL
DRY LAKE       N/A       68   5   8 S17G26            *NATANES MTNS
NOON CREEK     N/A       81   8   6 SE8G28            *PINALENO MTNS
COLUMBINE      N/A       56   9  15 SW11G25           *PINALENO MTNS
GUTHRIE        N/A       74   9   8 SE10G25           *SW OF GUTHRIE
$$

AZZ502-503-513-192215-
LOCATION       SKY/WX    TMP DP  RH WIND       PRES   REMARKS
NOGALES        FAIR      83   4   5 S23G32    29.96F
SELLS          N/A       84  -3   3 SW18G27           *
SASABE         N/A       82   9   6 SW20G30           *ALTAR VLY
HOPKINS        N/A       73   6   7 W12G29            *SANTA RITA MTNS
CARR CYN       N/A       80   4   5 S6G17             *W OF HEREFORD
$$

AZZ507-508-512-192215-
LOCATION       SKY/WX    TMP DP  RH WIND       PRES   REMARKS
SIERRA VISTA   FAIR      82  -6   3 SW26G37   29.97
DOUGLAS        FAIR      87   3   4 SW24G33   29.93F
EMPIRE MTNS    NOT AVBL
MULESHOE RANCH N/A       85   7   5 SW7G25            *PRESERVE
HEADQUARTERS   N/A       79   7   6 SW10G24           *CHIRICAHUA MTNS
$$

.............................NOTES.............................
THIS IS AN AUTOMATED COLLECTIVE WITH MINIMAL QUALITY CONTROL.
PIMA CO DEQ SITES HAVE NONSTANDARD WIND SENSOR HEIGHTS.
PIMA CO DEQ SITES DO NOT REPORT WIND GUSTS.
* INDICATES WIND SENSORS LOCATED AT 20 FEET INSTEAD OF 33 FEET.
..............................KEY..............................
SKY/WX - SKY CONDITION/WEATHER
TMP    - TEMPERATURE IN FAHRENHEIT
DP     - DEWPOINT IN FAHRENHEIT
RH     - RELATIVE HUMIDITY IN PERCENT
WIND   - DIRECTION AND SPEED IN MILES PER HOUR (MPH)
VRB    - VARIABLE WIND DIRECTION
PRES   - MEAN SEA LEVEL PRESSURE IN INCHES OF MERCURY
         F - FALLING PRESSURE   R - RISING PRESSURE
         S - STEADY PRESSURE
VSB    - VISIBILITY IN MILES
HX     - HEAT INDEX IN FAHRENHEIT
WCI    - WIND CHILL INDEX IN FAHRENHEIT
N/A    - NOT AVAILABLE
AFB    - AIR FORCE BASE
         DAVIS-MONTHAN IS DAVIS-MONTHAN AIR FORCE BASE
CYN    - CANYON
MTNS   - MOUNTAINS
NCA    - NATIONAL CONSERVATION AREA
NR     - NEAR
VLY    - VALLEY
CONTL  - CONTINENTAL
PIMA CO DEQ - PIMA COUNTY DEPT OF ENVIRONMENTAL QUALITY



USA.gov is the U.S. government's official web portal to all federal, state and local government web resources and services.